sat.trackr.live / text

‹ back to catalog

STARLINK-32591

NORAD 61718 · 2024-196M

PAYLOAD ACTIVE UNKNOWN

§ Identity

Operator
Country
US
Launch date
2024-10-30
Launch site
AFETR
Launch vehicle
Mass (kg)
RCS (m²)

Purposes: comms

External: N2YO · Heavens-Above · Gunter

§ Orbital elements

Epoch: 2026-05-25T03:42:10.156608Z

Period
93.85 min
Inclination
53.1603°
Eccentricity
0.0001085
Mean motion
15.34389188 rev/d
Perigee alt
462.0 km
Apogee alt
463.5 km
Semi-major
6,840.9 km
B*
1.2045e-5
RAAN
92.6417°
Arg perigee
95.0855°
Mean anomaly
265.0272°
Rev number
8,905

§ Raw data

STARLINK-325911 61718U 24196M   26145.15428422  .00000031  00000+0  12045-4 0  99902 61718  53.1603  92.6417 0001085  95.0855 265.0272 15.34389188 89054

JSON: /api/v1/satellites/61718 · /tle

For live sub-satellite position, see the globe view (requires WebGL).

§ Visibility from observer

Set your observer location to see the next 7 days of passes ≥ 10°. The values pass through the URL so the page stays shareable.

No JS? Fill the form by hand. The geolocation button needs JavaScript.